Location: Huesca
(42.1318°N, 0.4078°W)
Time: 13:49:37
(UTC+02:00)

Transit 2A - All Passes

Search period start: 19 July 2024 00:00
Search period end: 29 July 2024 00:00
Orbit: 591 x 960 km, 66.7° (Epoch: 18 July)

Date Brightness Start Highest point End Pass type
(mag) Time Alt. Az. Time Alt. Az. Time Alt. Az.
19 Jul - 10:01:48 10° S 10:06:42 47° ESE 10:12:11 10° NE daylight
19 Jul - 11:45:27 10° WSW 11:50:07 29° NW 11:55:13 10° NNE daylight
19 Jul - 17:05:24 10° N 17:08:26 14° NNE 17:11:29 10° ENE daylight
19 Jul - 18:47:00 10° NNW 18:53:09 50° NE 18:59:15 10° SE daylight
19 Jul - 20:30:37 10° NW 20:36:08 32° WSW 20:41:33 10° S daylight
20 Jul - 09:27:06 10° S 09:31:38 32° ESE 09:36:35 10° NE daylight
20 Jul - 11:09:38 10° WSW 11:14:37 40° NW 11:20:07 10° NNE daylight
20 Jul - 12:58:15 10° NW 12:59:35 11° NNW 13:00:56 10° NNW daylight
20 Jul - 16:31:10 10° NNE 16:32:38 11° NNE 16:34:05 10° NE daylight
20 Jul - 18:11:52 10° NNW 18:17:42 37° NE 18:23:30 10° ESE daylight
20 Jul - 19:55:01 10° NW 20:01:02 46° WSW 20:06:55 10° S daylight
21 Jul - 08:52:46 10° SSE 08:56:37 21° ESE 09:00:45 10° ENE daylight
21 Jul - 10:34:01 10° SW 10:39:11 57° NW 10:44:58 10° NNE daylight
21 Jul - 12:20:58 10° WNW 12:23:47 14° NNW 12:26:42 10° N daylight
21 Jul - 17:36:48 10° NNW 17:42:10 28° NE 17:47:32 10° ESE daylight
21 Jul - 19:19:33 10° NW 19:25:51 65° WSW 19:32:00 10° SSE daylight
22 Jul - 08:19:04 10° SE 08:21:40 14° E 08:24:23 10° ENE daylight
22 Jul - 09:58:37 10° SSW 10:03:51 82° WNW 10:09:42 10° NNE daylight
22 Jul - 11:44:21 10° WNW 11:48:03 18° NW 11:51:57 10° N daylight
22 Jul - 17:01:47 10° N 17:06:34 22° NE 17:11:21 10° E daylight
22 Jul - 18:44:13 10° NNW 18:50:36 89° WSW 18:56:52 10° SSE daylight
22 Jul - 20:29:25 10° WNW 20:32:55 15° WSW 20:36:22 10° SW daylight
23 Jul - 09:23:26 10° SSW 09:28:36 70° ESE 09:34:23 10° NE daylight
23 Jul - 11:08:05 10° W 11:12:23 23° NW 11:17:02 10° N daylight
23 Jul - 16:26:54 10° N 16:30:53 17° NE 16:34:54 10° ENE daylight
23 Jul - 18:08:56 10° NNW 18:15:17 67° ENE 18:21:31 10° SE daylight
23 Jul - 19:53:09 10° WNW 19:57:56 23° WSW 20:02:37 10° SSW daylight
24 Jul - 08:48:28 10° S 08:53:26 46° ESE 08:58:56 10° NE daylight
24 Jul - 10:32:02 10° WSW 10:36:48 30° NW 10:42:00 10° NNE daylight
24 Jul - 15:52:10 10° N 15:55:08 13° NNE 15:58:07 10° ENE daylight
24 Jul - 17:33:44 10° NNW 17:39:53 49° NE 17:45:57 10° SE daylight
24 Jul - 19:17:20 10° NW 19:22:53 33° WSW 19:28:19 10° S daylight
25 Jul - 08:13:47 10° S 08:18:20 31° ESE 08:23:19 10° NE daylight
25 Jul - 09:56:14 10° WSW 10:01:18 42° NW 10:06:54 10° NNE daylight
25 Jul - 11:44:36 10° NW 11:46:15 11° NNW 11:47:56 10° N daylight
25 Jul - 15:17:58 10° NNE 15:19:18 11° NNE 15:20:39 10° NE daylight
25 Jul - 16:58:36 10° NNW 17:04:25 36° NE 17:10:11 10° ESE daylight
25 Jul - 18:41:44 10° NW 18:47:46 47° WSW 18:53:39 10° S daylight
26 Jul - 07:39:28 10° SSE 07:43:19 21° ESE 07:47:28 10° ENE daylight
26 Jul - 09:20:38 10° SW 09:25:53 59° NW 09:31:43 10° NNE daylight
26 Jul - 11:07:28 10° WNW 11:10:27 14° NNW 11:13:33 10° N daylight
26 Jul - 16:23:31 10° NNW 16:28:53 28° NE 16:34:11 10° ESE daylight
26 Jul - 18:06:17 10° NW 18:12:35 66° WSW 18:18:43 10° SSE daylight
27 Jul - 07:05:49 10° SE 07:08:23 14° E 07:11:03 10° ENE daylight
27 Jul - 08:45:14 10° SSW 08:50:32 84° WNW 08:56:28 10° NNE daylight
27 Jul - 10:30:54 10° W 10:34:42 18° NW 10:38:45 10° N daylight
27 Jul - 15:48:32 10° N 15:53:16 21° NE 15:57:59 10° E daylight
27 Jul - 17:30:56 10° NNW 17:37:20 89° ENE 17:43:34 10° SSE daylight
27 Jul - 19:16:03 10° WNW 19:19:40 16° WSW 19:23:11 10° SW daylight
28 Jul - 08:10:04 10° SSW 08:15:17 68° ESE 08:21:07 10° NE daylight
28 Jul - 09:54:38 10° W 09:59:03 24° NW 10:03:49 10° N daylight
28 Jul - 15:13:37 10° N 15:17:35 17° NE 15:21:30 10° ENE daylight
28 Jul - 16:55:39 10° NNW 17:02:00 65° NE 17:08:12 10° SE daylight
28 Jul - 18:39:50 10° NW 18:44:40 23° WSW 18:49:24 10° SSW daylight
